Content
SEND FEEDBACK

Daily
Averages
Monthly
Summary
Venezuela

BARQUISIMETO, VENEZUELA


Home > South America > Venezuela
Elevation: 2014 feet     Latitude: 10 04N     Longitude: 069 19W

WEATHER
 
SELECT A DAY
Number of Records: 87,281;   Date Range: 7/2/96 - 8/28/14
 
SHARE

PRINT THIS DATA

[ ← Previous Day ]
WEATHER ALMANAC - JANUARY 23, 2013
[ Next Day → ]
[ °C ]   °F
Weather ElementAverageHighLow
Temperature77.1 °F86 °F (3:30 pm)69.8 °F (5:30 am)
Dewpoint67.3 °F69.8 °F (9:30 am)62.6 °F (3:30 pm)
Humidity72.7 %88 % (5:30 am)45 % (3:30 pm)
Barometer30.02 in30.06 in (8:30 am)29.93 in (1:30 pm)
Wind Speed6.8 mph11.5 mph (11:30 am)
Weather ElementAverage
Visibility6.8 mi
Wind DirectionE (91 °)

Weather ElementTotal
Precipitation---
Cooling Degree Days12.9 (Base 65)
Growing Degree Days27.9 (Base 50)
Averaged from 20 records on January 23, 2013
WEATHER CONDITIONS BREAKOUT
WIND DIRECTION BREAKOUT
WEATHER BY HOUR - JANUARY 23, 2013
[ °C ]   °F
Local TimeTemperatureDewpointHumidityBarometerVisibilityWind DirectionWind SpeedGust SpeedPrecipitationEventsConditions
5:30 AM69.8 °F66.2 °F88 %30.01 in6.2 miSE (140°)2.3 mphMostly Cloudy
6:30 AM69.8 °F66.2 °F88 %30.04 in6.2 miEast (90°)4.6 mphMostly Cloudy
7:30 AM70.0 °F67.0 °F87 %29.96 in12.0 miENE (70°)2.2 mphMostly Cloudy
7:30 AM69.8 °F66.2 °F88 %30.04 in6.2 miENE (70°)2.3 mphMostly Cloudy
8:30 AM71.6 °F68.0 °F88 %30.06 in6.2 miESE (110°)6.9 mphMostly Cloudy
9:30 AM75.2 °F69.8 °F83 %30.06 in6.2 miEast (90°)4.6 mphMostly Cloudy
10:30 AM77.0 °F69.8 °F78 %30.06 in6.2 miEast (90°)6.9 mphMostly Cloudy
11:30 AM80.6 °F69.8 °F70 %30.06 in6.2 miEast (90°)11.5 mphScattered Clouds
12:30 PM82.4 °F68.0 °F62 %30.04 in6.2 miEast (90°)11.5 mphScattered Clouds
1:30 PM82.4 °F68.0 °F62 %30.04 in6.2 miEast (90°)10.4 mphMostly Cloudy
1:30 PM82.0 °F68.0 °F54 %29.93 in12.0 miEast (90°)11.2 mphMostly Cloudy
2:30 PM84.2 °F64.4 °F51 %30.01 in6.2 miEast (90°)6.9 mphScattered Clouds
3:30 PM86.0 °F62.6 °F45 %29.98 in6.2 miEast (90°)8.1 mphScattered Clouds
4:30 PM86.0 °F68.0 °F55 %29.98 in6.2 miENE (70°)10.4 mphScattered Clouds
5:30 PM84.2 °F68.0 °F58 %30.01 in6.2 miENE (70°)6.9 mphScattered Clouds
6:30 PM78.8 °F66.2 °F65 %30.01 in6.2 miEast (90°)6.9 mphMostly Cloudy
7:30 PM75.2 °F68.0 °F78 %30.01 in6.2 miEast (90°)8.1 mphPartly Cloudy
8:30 PM73.4 °F68.0 °F83 %30.04 in6.2 miEast (90°)6.9 mphPartly Cloudy
9:30 PM71.6 °F68.0 °F88 %30.06 in6.2 miENE (70°)5.8 mphPartly Cloudy
10:30 PM71.6 °F66.2 °F83 %30.06 in6.2 miSE (140°)2.3 mphPartly Cloudy
Hourly data recorded from SVBM, located miles away from Barquisimeto, Venezuela







STORIES FROM OUR PARTNERS